Weather History for Kaolack, Senegal

Change the Weather History Date:

Friday, January 18, 2013

  Actual Average Record
Temperature  
Mean Temperature 78 °F -  
Max Temperature 95 °F 97 °F - ()
Min Temperature 62 °F 63 °F - ()
Cooling Degree Days 14    
Growing Degree Days 28 (Base 50)    
Moisture  
Dew Point 42 °F    
Average Humidity 29    
Maximum Humidity 40    
Minimum Humidity 14    
Precipitation  
Precipitation 0.00 in 0.00 in - ()
Sea Level Pressure  
Sea Level Pressure 29.94 in    
Wind  
Wind Speed 6 mph ()    
Max Wind Speed 14 mph    
Max Gust Speed -    
Visibility 5.1 miles    
Events      
T = Trace of Precipitation, MM = Missing Value Source: Averaged Metar Reports

Daily Weather History Graph

Daily Weather History Graph

Search for Another Location

Airport:

Trip Planner

Search our weather history database for the weather conditions in past years. The results will help you decide how hot, cold, wet, or windy it might be!

Date:

Astronomy

Jan. 18, 2013 Rise Set
Actual Time 7:32 AM GMT 6:57 PM GMT
Civil Twilight 7:09 AM GMT 7:19 PM GMT
Nautical Twilight 6:43 AM GMT 7:45 PM GMT
Astronomical Twilight 6:17 AM GMT 8:11 PM GMT
Moon 12:22 PM GMT 12:21 AM GMT
Length of Visible Light 12h 09m
Length of Day
11h 24m
Waxing Crescent, 45% of the Moon is Illuminated
Jan 18
Waxing Crescent
Jan 18
First Quarter
Jan 27
Full
Feb 3
Last Quarter
Feb 10
New

Hourly Weather History & Observations

Time (GMT) Temp. Heat Index Dew Point Humidity Pressure Visibility Wind Dir Wind Speed Gust Speed Precip Events Conditions
12:00 AM 72 °F - 44 °F 25% 29.96 in 5 mi North 6.9 mph - -  
12:00 AM 71.6 °F - 44.6 °F 38% 29.95 in 5.0 mi North 6.9 mph - N/A   Unknown
3:00 AM 68.0 °F - 41.0 °F 37% 29.95 in 5.0 mi North 6.9 mph - N/A   Unknown
4:00 AM 68.0 °F - 39.2 °F 35% 29.92 in 5.0 mi NE 4.6 mph - N/A   Unknown
5:00 AM 66.2 °F - 39.2 °F 37% 29.92 in 5.0 mi North 4.6 mph - N/A   Unknown
6:00 AM 64 °F - 40 °F 30% 29.95 in 5 mi North 6.9 mph - -  
6:00 AM 64.4 °F - 39.2 °F 40% 29.95 in 5.0 mi North 6.9 mph - N/A   Unknown
7:00 AM 64.4 °F - 39.2 °F 40% 29.95 in 5.0 mi North 6.9 mph - N/A   Unknown
8:00 AM 62.6 °F - 35.6 °F 37% 29.98 in - North 4.6 mph - N/A   Clear
9:00 AM 69.8 °F - 21.2 °F 16% 29.98 in 5.0 mi East 11.5 mph - N/A   Unknown
10:00 AM 71.6 °F - 44.6 °F 38% 30.01 in - NE 4.6 mph - N/A   Clear
11:00 AM 78.8 °F - 48.2 °F 34% 29.98 in - NE 6.9 mph - N/A   Clear
12:00 PM 84 °F - 43 °F 14% 29.97 in 6 mi NE 6.9 mph - -  
12:00 PM 84.2 °F - 42.8 °F 23% 29.95 in - NE 6.9 mph - N/A   Clear
3:00 PM 93.2 °F 91.3 °F 55.4 °F 28% 29.86 in - East 6.9 mph - N/A   Clear
4:00 PM 95.0 °F 92.7 °F 53.6 °F 25% 29.83 in - East 6.9 mph - N/A   Clear
5:00 PM 95.0 °F - 46.4 °F 19% 29.86 in - NE 11.5 mph - N/A   Clear
6:00 PM 93.2 °F - 39.2 °F 15% 29.89 in - North 13.8 mph - N/A   Clear
9:00 PM 77.0 °F - 46.4 °F 34% 29.92 in 5.0 mi North 6.9 mph - N/A   Unknown
11:00 PM 73.4 °F - 35.6 °F 25% 29.95 in 5.0 mi North 4.6 mph - N/A   Unknown